Temp
22 20 19 22 22 24 23 23 23 24 21 22 20 20 22 23 23 22 21 21 21 22 24 27 26 24 23 22 21 20 19 17 17 16 16 16 16 16 16 17 17 17 17 16
20 19 22 23 22 23 23 22 21 23 21 21 20 20 21 22 22 22 22 22 22 22 22 24 26 25 23 22 21 20 19 18 16 16 15 15 16 16 16 16 16 17 17 16
20 22 22 22 21 22 21 21 21 22 21 20 19 18 21 22 22 22 22 23 23 22 22 22 22 24 23 21 21 20 19 18 16 15 15 15 15 15 15 15 15 16 16 15
20 21 20 20 20 21 20 22 22 21 20 19 22 17 22 23 23 23 21 21 21 22 22 22 24 22 22 21 21 19 18 18 16 16 15 15 14 14 14 14 14 14 14 13
20 18 18 19 20 21 20 20 21 21 19 19 20 17 19 22 23 24 24 23 23 23 22 22 21 24 23 22 20 19 18 17 17 16 15 15 14 14 14 13 13 12 10 12
18 17 19 20 17 19 18 19 20 19 18 15 18 18 20 22 24 26 27 26 22 21 21 22 22 22 22 21 20 19 18 17 16 16 15 15 14 13 13 13 12 11 9 10
18 17 18 18 17 18 19 19 17 15 14 14 19 18 21 23 23 24 24 23 24 20 21 20 19 17 19 19 18 18 17 16 16 15 15 14 14 14 13 13 12 11 9 9
17 17 16 16 18 17 16 18 15 16 15 16 14 16 19 22 24 24 23 21 22 21 19 17 17 18 18 17 16 16 15 15 15 15 14 14 14 13 13 13 12 12 11 10
18 19 18 17 19 19 17 16 20 17 10 12 17 19 22 22 22 21 20 21 20 19 17 18 19 19 17 16 15 14 14 14 14 14 14 13 13 13 12 12 13 11 11 11
19 18 15 15 17 17 17 18 16 15 14 13 17 18 19 22 21 20 22 22 20 19 18 17 16 17 17 16 15 14 14 14 13 13 13 13 13 12 12 12 12 11 11 10
18 17 14 15 15 16 15 16 17 18 15 14 15 17 23 22 21 20 20 20 20 19 17 16 15 16 16 15 15 14 14 14 13 13 13 12 12 12 11 11 11 11 11 10
17 16 14 14 16 15 17 17 17 15 15 14 13 19 21 20 20 20 21 21 21 19 17 17 16 16 16 15 14 14 14 14 15 15 13 12 11 11 10 11 10 10 10 10
15 13 11 15 15 14 15 17 17 17 13 13 12 17 20 20 20 22 22 20 19 20 19 17 16 16 18 19 18 16 16 17 16 13 12 11 11 10 10 10 10 9 9 8
13 11 12 14 15 15 15 16 16 16 12 16 15 17 19 19 19 19 19 19 19 18 17 17 16 16 19 20 19 18 18 17 17 14 12 11 11 10 9 9 9 8 8 8
12 10 11 12 13 14 14 12 13 14 14 14 16 16 18 19 19 19 19 19 18 18 18 17 17 16 17 18 19 19 18 18 17 14 12 12 11 10 9 8 8 8 7 7
11 11 11 11 12 13 13 14 14 14 15 15 15 16 18 19 19 19 19 18 17 17 17 17 16 15 16 18 19 19 18 18 15 13 12 12 10 9 8 7 7 7 7 6
10 9 10 11 12 11 11 11 13 14 15 16 15 17 17 17 17 18 17 16 17 17 17 16 15 15 17 17 15 15 15 15 14 13 12 10 8 8 7 7 6 6 6 5
9 9 9 10 9 10 13 16 14 14 15 15 16 16 17 17 17 17 16 15 17 17 16 15 15 14 13 12 12 12 12 11 11 10 9 8 7 6 6 6 5 5 4 4
10 9 9 9 9 11 12 13 13 13 13 15 15 16 16 14 12 15 13 11 11 11 10 9 8 9 9 9 8 8 8 7 6 6 6 6 5 4 4 4 3 3 2 2
10 10 9 8 5 4 12 13 14 13 11 11 11 11 10 10 11 13 9 9 9 9 8 7 8 7 7 7 6 6 6 5 4 4 3 3 2 2 2 2 1 1 1 1
6 5 8 9 8 9 9 11 12 9 10 5 9 9 9 9 10 10 9 9 9 8 8 7 6 6 5 5 4 4 3 2 2 2 2 1 1 1 0 0 -0 -0 -1 -1
6 4 4 5 7 8 10 10 10 9 8 8 8 7 7 7 8 7 7 6 5 5 7 7 5 4 3 3 2 2 1 -0 -0 -0 -0 -1 -1 -1 -1 -1 -2 -2 -2 -3
4 7 5 7 7 8 9 10 10 8 8 8 8 7 7 7 6 6 6 7 5 5 5 5 3 2 1 1 1 0 -1 -1 -1 -2 -2 -3 -3 -3 -3 -3 -3 -4 -4 -4
4 4 3 3 5 7 8 8 9 9 7 7 7 6 6 7 6 5 5 5 4 5 4 3 1 -0 -1 -0 -0 -1 -2 -2 -2 -3 -3 -4 -4 -4 -4 -4 -3 -4 -4 -4
3 3 2 2 4 3 4 5 7 7 6 6 6 6 6 6 6 6 5 3 3 4 2 1 -0 -1 -2 -2 -2 -2 -2 -2 -3 -3 -4 -4 -4 -4 -4 -3 -3 -3 -3 -3
4 5 4 5 5 5 6 6 6 5 5 5 5 5 5 4 3 4 2 2 2 1 -0 -1 -2 -2 -3 -3 -3 -3 -3 -3 -2 -3 -4 -4 -4 -4 -4 -4 -3 -3 -3 -3
Height
794 807 813 803 799 796 802 809 808 801 809 811 814 809 798 786 782 784 783 780 778 775 772 773 776 780 786 791 795 798 803 806 811 814 818 821 822 826 829 833 837 840 843 843
803 812 795 791 795 798 803 815 816 803 808 813 812 806 793 784 777 774 774 773 770 768 767 767 769 772 777 782 788 792 796 799 802 807 809 814 816 819 823 826 829 833 835 837
802 796 789 796 803 808 808 816 816 814 811 808 814 810 789 773 768 767 764 761 761 762 763 762 762 765 769 775 780 785 789 792 797 802 807 811 815 818 818 818 821 825 828 830
797 793 799 802 808 808 818 803 806 812 823 835 807 838 789 777 771 765 762 762 759 757 755 756 758 761 763 766 773 778 785 790 793 798 800 802 803 806 807 809 812 817 822 824
798 803 805 807 803 801 811 806 807 811 824 825 818 838 800 776 776 763 756 754 752 751 751 753 755 757 761 765 769 774 779 783 786 790 793 796 798 800 802 806 810 813 815 818
799 798 797 799 807 806 809 813 814 818 826 847 820 821 798 784 768 754 747 747 752 754 754 754 756 757 759 762 766 769 773 777 782 786 789 790 791 795 799 800 802 804 807 810
800 801 800 800 813 810 812 817 842 850 856 844 804 812 785 763 756 754 753 752 752 755 755 757 758 759 760 761 763 767 770 773 777 781 784 787 790 790 791 793 793 796 798 800
804 813 803 800 800 812 818 815 838 847 847 830 823 815 785 755 746 747 748 751 751 754 755 754 755 756 758 760 763 766 769 772 775 777 779 781 784 787 787 789 787 788 789 793
797 792 785 791 790 793 812 820 801 821 853 849 812 783 763 756 756 754 755 754 755 755 756 754 753 755 757 760 762 764 767 770 772 773 776 778 780 781 782 785 785 784 785 787
781 796 797 800 795 795 800 797 822 827 847 848 806 798 787 766 763 756 752 754 755 755 755 755 754 757 759 760 761 763 764 766 768 770 772 773 775 776 777 778 777 778 779 782
781 792 808 801 803 801 808 808 803 804 817 831 822 799 752 756 757 759 758 757 757 756 757 756 756 757 759 759 760 760 761 761 762 763 764 766 768 770 771 772 772 772 774 776
782 789 802 800 789 792 791 791 797 813 814 817 821 778 749 753 754 756 757 756 755 755 758 757 756 756 757 759 760 758 758 758 757 757 757 758 761 763 765 766 767 769 770 772
793 803 816 799 798 796 796 791 790 793 808 815 824 781 746 753 759 753 754 757 756 755 757 756 754 753 752 752 752 752 751 751 752 754 755 754 753 754 755 758 759 762 765 766
791 806 804 794 788 788 793 792 791 797 816 792 798 774 757 762 764 760 758 756 755 756 757 754 753 751 750 749 747 746 746 746 746 746 746 747 748 748 750 752 753 755 757 759
795 805 805 797 791 791 799 807 803 801 799 803 781 784 750 763 763 761 755 754 755 754 752 752 750 747 745 744 743 742 741 740 740 740 739 735 737 741 744 746 748 749 750 752
793 799 801 799 793 792 794 790 789 790 786 787 780 777 751 752 755 755 750 755 753 751 750 749 747 744 741 739 737 736 735 734 735 734 734 733 732 735 738 741 744 745 746 748
797 801 803 791 792 796 798 783 784 775 769 770 773 756 757 755 753 748 753 754 747 747 745 745 743 740 737 735 735 733 731 730 729 730 731 731 732 732 733 735 738 740 742 745
798 802 806 796 802 794 769 757 763 766 762 762 761 757 751 752 744 741 750 746 742 740 740 738 737 736 735 733 731 730 728 727 725 724 725 727 728 728 730 730 731 735 739 741
790 799 802 798 799 782 773 762 768 771 762 757 757 751 748 751 752 741 751 753 752 749 747 743 743 740 735 732 729 726 724 724 723 721 721 722 723 725 726 727 729 731 735 739
784 786 799 801 827 835 761 758 757 758 768 762 760 762 763 761 760 750 753 749 746 746 745 742 741 739 736 732 729 726 722 720 721 721 721 721 721 723 724 725 727 730 733 736
796 804 791 787 788 782 766 758 759 784 770 777 768 768 768 766 762 757 753 748 746 743 741 738 736 735 733 730 728 726 724 722 719 719 719 720 720 722 722 723 725 728 732 736
789 807 805 802 789 780 756 757 765 766 766 768 767 767 767 763 757 756 750 747 743 740 738 735 731 729 727 728 726 724 725 724 722 719 721 722 722 723 724 725 727 729 733 736
796 775 785 773 773 761 757 756 758 762 765 767 765 760 759 758 754 749 744 740 738 736 734 732 731 728 724 723 726 723 720 720 722 724 722 723 723 726 727 727 731 733 734 737
777 773 785 783 766 760 756 756 758 760 761 759 758 756 754 751 748 746 741 737 734 732 729 728 727 725 725 721 719 727 725 718 723 722 723 724 724 728 732 732 733 735 736 740
775 777 780 778 765 766 762 758 755 754 756 753 750 751 750 748 743 739 736 734 730 726 724 725 724 722 724 725 719 721 728 727 723 722 725 727 727 726 733 736 737 738 738 739
765 766 770 764 761 763 758 754 753 754 752 749 746 743 741 743 741 735 736 731 728 724 723 722 721 720 720 722 720 726 724 732 723 725 728 728 727 730 734 738 740 742 744 744
Wind_Speed
1 3 6 9 9 6 4 7 6 4 3 1 7 12 11 9 8 9 10 10 11 12 10 24 25 33 32 30 33 34 34 34 34 32 33 32 32 30 29 31 29 29 29 30
3 5 8 3 5 3 1 6 7 6 6 1 8 13 10 11 11 11 11 11 11 9 10 13 29 30 35 35 34 34 36 37 38 36 36 31 34 34 33 32 34 32 32 34
5 1 5 5 2 2 4 6 7 5 3 6 4 10 7 9 12 11 12 12 10 10 9 9 15 30 34 36 37 36 37 38 37 34 31 25 21 26 26 31 36 39 35 36
6 3 4 4 5 6 5 4 6 4 4 3 3 6 4 10 8 9 10 9 10 10 9 8 6 15 32 37 36 36 34 32 34 34 31 34 31 25 33 35 34 35 39 35
4 6 5 4 5 6 2 3 3 3 3 5 4 2 8 7 7 7 10 9 8 5 7 7 9 11 25 29 30 30 31 33 34 36 36 33 33 33 21 29 31 31 33 41
2 0 2 3 4 3 7 4 3 2 2 5 10 9 4 6 6 3 3 4 7 6 6 5 3 1 7 19 24 27 30 33 33 33 36 34 33 29 24 22 27 29 31 37
6 5 3 2 5 5 2 4 1 2 0 7 3 5 11 8 10 5 6 5 3 6 4 2 5 6 8 11 16 21 25 27 29 32 33 35 31 30 31 28 32 32 28 35
8 4 10 7 7 8 9 7 5 6 4 3 6 7 6 9 3 3 5 5 1 5 5 7 7 9 12 12 13 15 19 22 24 28 31 33 35 32 30 31 32 33 33 33
5 6 2 4 2 6 5 7 3 4 2 3 5 7 7 6 7 7 7 6 8 7 6 6 5 6 10 10 12 13 15 17 21 24 28 29 30 32 31 29 30 29 30 31
2 5 3 3 4 4 3 1 3 2 2 4 7 7 8 2 8 10 3 3 5 5 5 4 4 7 4 6 9 11 13 16 17 21 24 27 28 31 32 30 31 31 30 29
4 4 1 4 6 8 3 4 3 3 5 5 5 7 3 2 6 8 6 6 3 2 2 3 3 3 4 6 9 11 14 16 17 19 22 26 28 29 30 32 33 31 30 29
2 2 5 7 3 3 2 6 7 4 3 3 2 15 2 7 8 8 4 4 5 5 4 2 2 4 3 6 10 12 12 14 17 20 23 26 26 27 28 31 31 30 29 31
3 2 2 3 1 2 3 4 5 6 2 7 6 11 6 3 7 3 2 1 1 2 3 5 4 5 9 12 15 17 16 18 19 21 23 25 27 27 29 31 30 29 29 30
7 4 6 6 5 4 3 3 4 6 3 16 13 21 21 9 8 7 7 4 5 5 6 6 6 6 11 15 18 21 20 21 22 24 25 27 29 29 29 28 28 29 30 32
6 7 9 11 13 11 9 8 13 14 14 8 19 16 30 16 13 9 8 7 7 8 7 7 9 10 15 15 19 21 24 25 26 27 29 32 32 29 27 27 27 28 30 32
6 3 8 9 12 12 15 15 18 20 23 21 28 26 29 23 16 16 16 8 9 8 8 8 9 8 15 19 23 23 23 25 26 27 30 31 27 25 26 25 25 26 28 28
5 4 4 11 4 6 9 20 16 20 21 21 20 24 11 13 13 15 12 10 16 14 14 11 9 9 17 18 12 12 13 13 20 25 27 25 22 21 22 21 23 24 25 25
3 3 3 4 3 10 8 2 11 15 16 13 15 16 21 20 20 19 7 12 16 16 15 10 9 9 5 12 15 16 17 17 16 18 21 20 20 21 21 20 20 21 22 22
11 5 3 4 5 9 16 15 3 6 14 7 12 17 18 10 10 15 9 9 7 7 8 10 15 16 18 12 10 11 11 11 10 11 14 15 15 16 17 17 17 18 18 17
14 15 9 7 4 6 18 14 7 3 11 7 5 6 7 10 7 10 8 7 6 11 13 16 23 23 16 14 16 14 9 7 8 8 8 8 8 11 12 12 13 14 14 13
4 3 14 14 12 7 9 12 2 5 8 2 4 5 6 5 4 10 11 11 8 7 14 15 14 15 15 17 15 12 8 5 4 5 5 6 6 7 8 9 11 11 11 10
7 5 4 4 7 13 3 3 7 3 2 2 4 6 9 9 12 9 10 9 9 9 13 15 13 11 10 13 10 6 3 3 3 6 7 7 7 8 8 10 11 10 10 11
4 7 4 8 5 3 2 3 2 3 4 5 5 11 9 9 10 10 9 12 9 14 14 13 15 12 9 6 6 8 6 7 9 10 13 13 13 12 11 13 13 13 11 13
4 1 2 3 8 11 3 4 1 4 7 7 7 10 9 9 9 10 9 11 7 14 17 16 12 8 5 3 4 5 8 13 14 17 18 17 18 17 14 14 13 15 14 12
5 2 2 5 8 4 6 5 6 4 8 10 9 7 9 7 12 11 11 9 11 17 14 13 13 8 5 3 7 10 8 13 19 20 16 16 18 20 17 14 13 12 10 9
5 9 6 9 8 4 8 7 9 9 9 12 13 13 11 7 9 11 10 13 16 12 8 8 6 8 7 7 8 7 11 14 20 20 17 16 19 19 19 16 18 14 12 10
Wind_Direction
176 207 197 204 224 257 24 321 332 56 120 159 241 260 261 262 253 240 234 228 232 242 233 221 214 209 209 212 210 209 205 206 204 203 206 210 213 214 217 218 221 227 224 221
121 226 236 80 32 199 176 290 284 298 103 133 275 278 265 266 249 233 242 244 243 241 227 224 212 204 203 206 210 209 205 208 209 206 210 209 213 217 220 218 217 218 226 225
203 135 175 122 113 147 231 239 265 277 358 223 288 279 237 252 252 249 243 248 249 242 240 229 198 199 200 203 208 210 210 209 208 207 208 210 215 221 218 223 227 219 221 222
226 170 134 155 226 182 254 271 222 317 21 250 34 288 290 297 283 230 244 235 239 240 238 230 220 195 194 205 210 212 212 210 211 207 205 203 203 205 217 220 228 228 221 219
195 156 167 179 170 180 199 5 120 108 241 316 204 244 269 247 267 251 265 266 251 255 219 207 206 212 207 209 210 212 212 213 212 208 208 208 213 221 224 228 235 235 228 227
39 125 182 172 59 11 133 98 117 143 196 263 206 210 227 231 239 280 136 103 91 74 49 29 54 155 188 202 210 211 211 212 212 210 211 213 215 217 219 224 224 229 234 232
175 181 125 133 91 34 252 145 291 299 284 237 323 244 237 290 289 257 275 284 33 142 144 246 204 213 220 200 201 205 207 212 212 213 214 218 221 224 222 223 224 228 223 227
199 204 149 191 193 171 197 187 173 208 204 268 330 245 263 218 255 283 277 303 284 246 211 224 237 208 196 203 205 209 211 215 213 215 219 222 226 230 228 228 234 234 236 238
198 230 115 146 89 138 180 220 250 337 20 33 233 273 292 199 234 299 297 312 317 359 22 359 245 174 161 188 204 209 213 220 222 222 224 227 228 230 232 234 239 236 239 242
234 271 353 60 64 307 183 204 109 252 204 250 262 293 247 339 241 244 213 84 48 34 27 351 80 115 149 180 196 202 211 219 222 225 231 234 233 235 236 234 237 233 236 235
174 219 31 104 204 175 144 226 217 170 185 184 272 256 270 164 77 99 68 56 48 83 80 79 95 121 182 204 210 207 211 215 221 226 229 234 236 236 237 237 236 237 230 230
275 302 221 199 120 41 261 221 193 171 226 241 171 266 70 101 111 97 89 325 317 32 44 66 136 178 212 244 242 231 230 234 239 239 231 234 239 239 239 239 237 238 234 231
332 334 64 330 117 55 224 215 235 270 36 212 166 259 146 62 80 92 172 124 89 144 283 285 278 229 233 241 241 241 242 250 256 247 241 238 238 237 237 237 236 235 234 230
107 159 220 226 106 49 149 194 237 202 230 249 245 268 272 292 315 325 320 228 213 222 257 276 281 261 261 260 253 242 251 257 261 252 239 244 246 242 240 239 237 233 230 230
130 199 210 249 281 293 275 281 297 283 277 264 268 268 276 281 283 277 272 311 304 289 275 267 278 298 298 284 278 267 262 265 260 249 241 242 248 244 241 237 234 230 229 230
150 226 205 255 245 248 263 259 243 240 248 245 251 255 258 273 277 277 280 300 294 298 283 269 271 269 281 284 285 280 280 272 255 245 248 253 248 241 238 237 233 231 229 229
173 148 160 257 210 238 256 241 238 244 242 238 247 259 280 290 285 283 304 306 298 299 296 294 286 274 281 296 312 297 292 278 261 255 255 252 247 237 236 234 232 233 228 230
145 139 195 261 101 234 250 201 232 241 258 259 266 273 276 277 282 286 295 270 287 295 297 291 295 311 329 313 306 297 291 284 271 256 252 254 250 246 242 234 230 229 228 231
208 193 237 243 211 292 306 284 292 291 277 249 245 250 266 315 325 295 24 17 9 352 333 332 338 329 320 321 313 304 303 296 276 257 255 255 249 243 235 230 228 226 229 233
216 212 214 255 237 238 262 271 244 8 273 351 34 16 350 352 318 294 342 336 342 339 336 330 326 325 322 319 317 309 293 270 262 259 254 246 235 231 226 226 221 224 225 229
152 196 222 233 242 260 254 256 352 279 266 266 22 333 312 300 270 295 307 304 294 289 311 317 311 310 312 314 315 296 274 246 234 227 213 204 196 202 202 194 199 198 197 196
178 166 188 212 237 258 247 6 194 240 173 208 232 234 257 263 276 260 265 273 284 280 293 303 301 296 293 305 298 254 243 267 190 162 152 141 143 149 156 163 158 163 166 159
243 211 196 184 204 228 178 225 136 139 170 273 273 289 268 261 278 287 292 302 288 287 284 281 287 286 287 289 266 216 196 169 158 141 123 118 118 120 131 135 135 134 143 142
288 96 204 27 276 275 319 311 187 218 251 268 263 271 275 275 285 284 290 286 276 281 264 271 261 238 246 205 160 237 185 156 152 133 124 117 110 110 112 120 129 130 130 134
207 65 223 271 285 344 290 276 303 299 285 280 284 272 268 288 294 294 294 282 287 287 267 255 237 220 208 202 136 149 166 161 143 132 125 119 117 118 117 113 121 124 125 132
216 248 254 263 269 244 277 264 287 285 280 280 285 287 268 234 258 291 282 279 280 278 241 218 220 204 189 181 147 154 161 182 141 129 130 128 122 126 124 117 102 94 94 97